Simultaneous Nadir Overpasses (SNOs) Predictions

Prediction of SNOs between NOAA-20 and LANDSAT-8 Satellite Orbit:

Table of predicted SNOs for the next 14.0 days since TLE Epoch: 1/29/2022
Index Date (NOAA-20) Time (NOAA-20) Lat,Lon (NOAA-20) SZA (NOAA-20 ) Date (LANDSAT-8) Time (LANDSAT-8) Lat,Lon (LANDSAT-8) SZA (LANDSAT-8 ) Distance(km) Time Diff (sec)
1 01/29/2022 15:05:33 -70.34, 129.46 91.79 01/29/2022 15:06:45 -70.25, 129.97 91.92 21.77 72
2 01/29/2022 15:56:13 70.01, -62.71 87.85 01/29/2022 15:56:15 69.98, -62.76 87.83 3.10 2
3 01/29/2022 16:46:55 -69.92, 104.74 92.25 01/29/2022 16:45:44 -69.92, 104.79 92.25 1.88 71
4 02/01/2022 07:22:27 -70.08,-114.37 92.81 02/01/2022 07:23:17 -70.09,-114.38 92.81 1.01 50
5 02/01/2022 08:13:11 69.96, 53.12 87.06 02/01/2022 08:12:44 69.99, 53.13 87.09 3.47 27
6 02/01/2022 09:03:35 -68.97,-138.13 93.99 02/01/2022 09:02:29 -69.00,-140.57 93.86 97.37 66
7 02/03/2022 22:48:57 70.92,-167.27 87.32 02/03/2022 22:50:04 70.81,-165.07 87.11 80.79 67
8 02/03/2022 23:39:24 -70.04, 1.46 93.63 02/03/2022 23:39:46 -70.04, 1.43 93.63 1.29 22
9 02/04/2022 00:30:08 69.92, 168.95 86.24 02/04/2022 00:29:13 69.94, 168.93 86.26 2.28 55
10 02/06/2022 15:05:41 70.14, -50.26 85.68 02/06/2022 15:06:45 70.15, -50.18 85.67 3.05 64
11 02/06/2022 15:56:22 -69.99, 117.29 94.49 02/06/2022 15:56:16 -69.98, 117.22 94.50 2.63 6
12 02/06/2022 16:46:59 69.50, -74.68 84.99 02/06/2022 16:45:48 69.60, -75.66 85.14 39.37 71
13 02/09/2022 07:22:39 70.10, 65.56 84.80 02/09/2022 07:23:15 70.08, 65.60 84.76 3.24 36
14 02/09/2022 08:13:20 -69.95,-126.89 95.38 02/09/2022 08:12:45 -69.97,-126.91 95.35 2.61 35
15 02/11/2022 22:49:01 -70.59, 13.24 95.55 02/11/2022 22:50:11 -70.50, 14.44 95.71 45.85 70
16 02/11/2022 23:39:37 70.07,-178.62 83.89 02/11/2022 23:39:44 70.06,-178.55 83.87 3.13 7
17 02/12/2022 00:30:18 -69.91, -11.07 96.29 02/12/2022 00:29:15 -69.90, -11.14 96.29 2.86 63



Historial Predications of SNOs between NOAA-20 and LANDSAT-8
